Theta_e
308 309 309 309 309 308 310 311 312 311 312 311 310 312 312 313 314 314 314 314 314 314 314 314 311 310 310 311 313 314 318 322 322 319 319 320 328 325 325 328 330 331 330 332 337
309 309 309 309 309 308 308 310 311 309 309 310 309 311 312 313 314 314 313 312 312 314 315 314 313 311 316 313 312 316 319 320 318 317 317 318 325 328 328 329 329 332 333 335 337
306 307 308 308 308 309 309 310 310 310 308 308 309 311 311 312 313 312 313 314 314 316 315 313 311 311 316 313 315 321 318 318 316 314 314 317 320 325 329 330 329 331 334 335 337
306 306 307 307 307 308 308 308 308 309 308 308 309 310 311 313 313 312 314 316 317 317 314 313 312 312 312 322 314 318 316 314 313 312 316 317 318 321 326 329 325 328 333 335 337
303 304 305 306 307 305 307 306 307 306 307 307 308 309 312 313 313 312 312 312 312 312 311 311 311 311 312 312 317 320 319 315 312 313 316 316 318 317 318 323 323 325 333 336 337
302 302 303 304 305 306 307 306 306 306 306 307 307 309 311 313 310 310 310 311 312 312 313 309 309 309 309 309 312 315 322 316 313 313 316 317 316 316 316 316 316 321 328 333 335
301 302 302 302 303 305 306 307 305 306 307 307 307 309 310 311 310 310 312 312 312 312 313 313 309 309 309 309 308 309 309 310 311 311 313 315 316 316 315 317 315 315 319 325 333
300 299 300 301 301 303 303 305 306 307 305 304 308 308 309 309 309 309 310 310 311 312 314 314 311 309 311 310 310 308 309 310 316 311 312 314 318 315 314 314 315 316 320 321 326
299 299 300 299 301 301 303 303 303 306 306 306 307 307 307 308 309 308 309 309 311 313 314 314 313 313 311 310 310 310 310 309 310 310 311 314 314 314 307 311 313 314 314 322 327
300 299 299 299 301 302 303 304 304 304 305 306 307 307 306 308 308 308 308 309 310 312 316 316 315 314 311 310 306 308 308 307 308 307 309 312 312 311 309 308 309 310 311 313 318
301 300 299 300 301 302 302 303 304 304 304 306 306 306 307 306 307 309 308 309 310 313 315 314 315 314 312 309 307 306 309 308 306 305 307 310 311 312 312 311 311 310 309 310 311
302 301 300 300 300 301 301 302 303 303 305 304 305 306 306 306 308 309 309 310 312 312 314 315 316 311 311 310 309 306 307 308 306 307 309 308 308 309 309 309 310 311 311 310 310
301 301 300 299 299 300 301 300 301 303 304 304 305 306 306 306 308 309 310 310 311 311 314 314 312 312 311 310 310 308 308 305 306 308 307 307 307 308 307 308 308 308 309 310 310
302 301 300 299 298 299 300 299 299 301 305 305 305 305 306 307 307 307 310 310 311 312 311 313 312 312 313 312 310 309 308 307 307 307 304 306 304 306 305 305 305 306 309 309 309
301 300 299 298 299 299 300 299 301 300 306 304 305 304 306 306 306 307 308 310 310 311 311 311 313 313 313 312 310 308 308 308 308 308 308 306 305 305 305 305 306 306 304 304 304
300 300 299 299 299 299 298 299 300 302 305 304 305 307 306 305 306 307 308 308 309 310 311 310 310 312 312 311 309 308 308 308 308 308 308 305 305 304 305 304 304 304 306 303 302
301 300 299 298 299 299 299 300 302 304 298 303 305 305 305 305 305 306 309 309 309 311 311 310 312 311 311 312 310 309 309 313 312 313 310 306 306 305 305 305 306 306 305 306 306
300 299 298 298 298 298 298 300 304 298 299 302 303 304 304 305 305 305 306 308 308 309 309 310 312 311 311 311 312 309 309 311 310 312 307 306 307 307 306 307 306 305 306 305 303
299 298 298 298 298 298 297 302 302 299 300 304 303 303 303 304 304 305 306 306 306 309 309 309 309 310 311 311 311 311 312 308 309 302 310 308 307 307 308 307 306 307 305 302 300
298 298 297 299 299 295 300 301 298 297 300 303 303 301 304 304 304 305 305 305 305 306 308 310 310 309 310 311 311 311 310 311 312 314 311 308 309 308 310 309 307 306 303 301 299
296 296 296 298 298 297 301 299 299 297 299 300 300 300 301 304 303 304 304 304 304 305 307 308 310 309 310 311 311 312 313 311 310 311 309 307 308 306 310 308 308 303 302 300 297
294 297 296 297 297 295 299 299 299 298 296 298 298 298 302 302 303 305 305 304 301 303 307 307 309 310 310 308 309 310 311 313 312 312 310 309 308 306 307 306 306 301 300 296 294
296 297 296 296 299 296 296 296 298 298 297 297 299 299 298 301 303 302 303 301 301 304 306 307 307 307 307 309 309 313 312 313 314 312 313 311 309 304 304 305 303 302 298 295 292
297 297 296 294 293 295 296 294 298 296 297 296 298 299 300 300 298 302 302 300 300 302 303 305 306 305 305 305 309 310 311 312 313 317 313 311 309 305 304 305 302 299 296 294 292
293 294 292 297 296 297 296 294 297 298 296 295 297 298 300 299 298 299 300 301 300 300 302 303 306 305 305 305 306 307 309 312 313 313 315 313 310 307 304 304 302 299 295 292 291
295 294 292 294 296 296 295 295 296 295 296 295 297 296 294 297 297 299 298 298 300 301 301 302 304 302 302 304 304 306 305 306 310 309 313 310 310 306 303 302 298 297 295 294 292
289 290 295 294 296 298 296 295 295 295 294 294 296 295 295 295 296 296 296 297 299 300 301 301 302 303 302 302 304 303 304 305 304 306 308 309 307 307 305 305 300 297 295 294 291
Wind_Speed
13 15 15 15 14 12 11 11 11 9 8 9 7 7 8 8 9 7 8 10 6 9 12 10 6 6 2 3 2 2 5 7 8 6 4 2 5 3 0 5 4 6 1 3 20
12 12 12 16 16 14 13 12 10 11 9 8 8 7 6 6 8 10 15 17 18 14 7 6 6 5 4 5 2 4 7 10 5 5 5 2 5 4 5 8 7 7 6 11 17
13 12 11 11 14 16 12 14 11 11 9 8 7 6 5 2 5 3 5 8 11 13 8 3 4 3 6 3 7 7 10 14 12 9 6 4 4 2 6 8 10 13 12 14 17
9 9 10 11 10 12 14 12 12 9 8 7 7 5 3 3 4 3 7 11 7 5 6 4 5 4 5 9 5 9 14 14 8 5 4 5 1 4 7 7 4 4 13 17 18
13 11 10 10 10 9 12 12 12 11 11 7 5 5 3 4 6 5 2 4 4 6 5 5 7 7 9 6 7 12 14 15 12 7 7 2 8 6 9 9 2 2 10 15 17
11 10 12 11 9 9 8 10 13 12 9 10 6 4 4 10 5 10 10 7 4 2 2 5 3 3 5 6 15 7 14 16 16 11 6 7 6 1 9 8 10 6 8 13 16
10 10 12 12 9 8 8 8 10 13 9 10 8 4 8 11 4 3 2 3 3 3 3 3 2 5 3 3 5 2 4 10 12 15 8 7 11 10 18 3 7 13 11 10 13
11 11 10 7 10 9 8 9 6 11 12 9 4 3 5 9 15 17 6 3 1 3 4 4 2 3 4 2 2 8 7 13 13 10 7 12 21 15 15 10 15 14 10 11 12
9 10 10 9 8 9 8 8 9 8 10 6 3 4 6 5 9 16 13 13 1 2 5 1 4 3 3 5 4 8 12 18 11 10 6 15 12 15 4 9 14 16 15 10 12
10 8 7 7 6 5 4 6 5 6 7 4 4 4 7 4 3 5 12 10 7 5 4 6 5 7 8 11 11 9 13 6 11 4 9 12 16 8 3 5 9 10 11 14 12
11 10 8 7 7 6 3 2 4 1 7 7 8 4 2 6 2 3 5 11 10 5 9 11 9 13 15 15 9 2 7 13 4 2 5 16 14 18 15 10 10 7 9 11 15
13 11 7 5 6 7 3 3 3 3 4 17 7 14 6 3 4 4 8 10 11 14 12 5 16 14 8 11 12 9 5 6 3 1 5 7 11 15 13 12 16 17 14 12 12
13 11 8 4 5 4 6 7 5 4 3 4 16 10 8 7 3 8 12 8 14 17 18 16 3 13 13 10 14 15 17 9 3 1 1 7 13 14 10 8 10 12 14 15 15
13 11 7 3 3 4 5 8 12 2 5 9 10 8 8 10 8 9 14 10 9 18 16 14 11 9 14 18 15 17 9 10 4 2 8 2 7 5 4 8 10 12 13 14 13
14 11 8 5 2 5 3 2 10 6 5 10 7 8 13 13 7 10 6 9 15 13 11 6 10 10 10 8 14 10 9 12 12 12 9 15 6 6 2 8 11 2 0 2 4
13 10 8 6 10 5 5 6 11 5 6 6 5 10 14 14 6 4 10 5 3 10 11 16 1 10 15 6 15 10 9 6 3 5 8 16 11 8 8 4 2 1 6 7 7
11 12 10 10 2 5 8 4 5 6 3 5 5 10 15 9 15 7 11 15 10 9 12 13 13 4 4 12 9 12 14 5 6 6 9 2 10 14 3 4 7 6 4 7 8
13 12 9 13 8 7 9 3 8 3 5 2 8 12 9 11 13 11 8 13 16 7 6 14 9 17 11 11 8 15 17 6 8 7 6 5 9 2 1 3 2 4 6 8 10
17 11 5 7 11 12 3 8 4 6 6 8 11 5 5 8 6 10 12 14 15 13 11 11 14 7 13 8 15 14 12 3 4 1 2 6 4 4 3 4 4 5 7 8 9
15 7 4 5 11 6 2 3 1 2 3 13 5 2 6 13 8 14 12 8 11 16 15 1 6 9 17 11 17 13 14 9 5 6 7 6 4 5 9 6 5 6 6 7 8
11 4 1 10 7 1 1 1 3 2 1 2 4 5 5 7 7 8 5 2 4 4 15 6 2 4 8 15 20 12 8 9 7 4 6 7 4 2 7 6 8 7 7 8 8
5 3 2 10 2 1 1 3 2 2 5 3 3 5 5 5 3 5 7 1 2 2 9 9 3 5 14 2 4 21 18 16 9 9 6 2 3 3 6 6 8 8 8 8 8
3 3 6 2 2 2 1 3 3 2 2 1 2 1 3 4 5 2 3 2 4 4 4 7 4 5 3 4 4 5 9 10 7 2 12 9 4 6 6 7 7 10 9 8 8
4 3 2 2 1 4 4 2 3 1 3 3 3 3 5 3 2 7 6 5 4 5 6 2 4 5 10 4 2 4 10 13 10 5 9 14 8 10 10 9 8 8 8 8 7
3 2 1 4 3 5 2 2 3 3 3 4 3 0 3 4 2 1 2 7 4 6 2 2 2 4 2 2 1 1 5 11 17 19 6 3 11 16 14 12 9 8 7 7 7
3 4 2 2 7 7 2 1 2 3 2 2 4 4 1 3 1 7 5 1 3 5 6 3 6 4 2 3 1 3 8 9 6 1 10 4 3 5 9 8 10 10 9 8 8
2 3 3 2 3 2 2 3 3 5 3 4 7 5 9 5 6 7 7 6 2 3 4 3 4 2 3 4 1 5 9 14 9 7 9 6 7 13 12 8 9 9 10 9 9
Wind_Direction
269 267 254 255 261 263 266 271 279 287 288 277 286 299 273 277 292 285 253 236 260 285 307 319 318 289 144 114 93 116 248 240 241 212 246 172 211 147 246 161 178 175 60 59 147
276 281 284 259 251 257 256 257 263 274 288 289 276 296 288 288 301 272 266 273 262 265 310 330 302 337 231 143 154 173 243 241 254 253 280 240 235 188 202 187 191 175 114 136 150
275 265 283 289 267 246 254 252 253 256 275 287 285 285 282 296 289 254 336 293 252 232 233 283 298 287 255 183 183 172 244 257 263 258 269 275 247 208 222 213 211 201 167 157 164
278 282 273 285 288 265 243 250 246 253 251 274 265 270 265 199 257 106 72 66 118 184 192 190 216 221 220 218 199 202 226 257 281 252 231 251 254 235 229 228 350 226 169 162 177
277 284 285 274 279 270 259 259 248 252 246 264 255 242 189 206 244 207 262 337 31 127 161 182 191 215 218 227 188 219 226 251 259 262 239 273 248 268 250 235 201 74 174 187 190
290 292 273 280 278 266 265 269 254 241 242 242 263 234 208 231 257 267 277 273 230 190 124 170 200 234 246 230 220 215 234 258 259 250 233 231 241 230 252 250 239 218 215 208 205
281 278 271 260 268 268 271 267 244 246 232 234 248 240 232 227 218 215 106 114 162 181 183 206 219 224 203 220 230 221 227 231 236 236 231 210 236 227 249 258 260 233 232 237 223
297 284 276 288 270 257 269 267 269 242 244 238 261 207 247 244 247 255 249 313 251 211 211 221 175 234 232 300 189 209 235 238 241 199 216 200 253 222 250 233 238 244 233 236 236
286 294 279 295 274 261 258 275 258 245 241 223 186 197 258 235 228 234 237 232 205 255 223 103 173 222 177 216 187 204 231 223 247 205 206 203 248 248 181 212 243 242 245 240 245
266 268 267 280 267 239 245 280 262 233 208 175 144 174 225 221 194 211 222 207 208 242 178 184 194 209 204 201 211 208 222 207 222 186 229 217 238 226 133 218 251 253 247 242 241
290 255 260 265 266 247 264 172 155 190 205 197 181 195 123 198 160 191 177 178 194 210 208 195 212 215 213 216 235 267 216 242 190 137 218 243 249 256 252 244 253 253 250 246 243
296 268 254 247 258 242 231 215 233 98 196 222 216 212 107 140 164 184 170 179 191 203 208 179 229 233 232 213 221 223 213 231 268 122 233 263 257 264 257 254 243 246 246 248 248
291 277 248 258 283 250 218 220 259 236 277 197 206 201 199 202 177 189 183 190 197 202 207 216 173 215 206 207 216 229 231 221 296 293 256 296 266 244 251 248 245 246 247 249 244
282 277 245 253 275 204 216 240 239 180 238 177 184 212 180 168 215 201 199 195 201 211 210 229 200 174 213 225 210 226 214 216 189 307 255 314 278 244 265 273 248 242 236 243 251
271 253 219 221 151 175 118 104 163 116 256 146 155 160 172 188 135 197 188 206 211 188 198 192 181 187 206 216 207 236 171 204 225 246 282 237 262 233 298 267 260 272 247 307 300
259 210 206 231 239 235 203 153 135 181 241 181 153 162 158 191 183 118 183 210 242 220 231 227 193 208 220 185 197 150 135 105 121 216 251 242 224 230 228 244 292 305 2 6 360
225 188 200 214 237 202 193 170 171 220 88 171 165 157 168 168 196 201 184 194 196 197 213 216 216 166 176 190 185 183 171 156 194 199 243 60 213 250 214 302 294 306 23 44 38
188 177 202 224 233 228 151 187 232 115 208 171 153 143 170 147 193 205 211 217 211 219 221 209 207 208 180 204 179 199 192 190 203 208 224 148 229 175 324 63 54 65 73 61 54
165 163 170 225 215 201 163 201 185 163 180 148 132 137 156 168 167 177 209 224 210 194 213 214 224 190 187 184 174 193 222 227 108 61 210 194 243 238 146 107 98 88 78 66 64
138 134 151 160 190 131 233 124 145 100 226 156 140 141 160 176 168 188 186 215 212 205 213 273 213 196 203 212 210 201 186 199 217 204 230 201 237 214 184 162 134 109 100 90 80
117 117 141 153 169 146 235 172 128 71 254 55 100 115 174 157 178 183 207 158 231 164 195 171 237 182 180 205 205 203 198 225 220 224 240 238 202 114 169 162 147 135 118 107 89
116 110 326 140 88 1 83 18 73 99 55 95 134 124 134 121 119 190 189 336 13 234 177 201 179 256 214 80 258 227 211 198 207 202 233 345 183 133 138 133 138 140 131 110 93
90 102 49 100 140 116 60 44 51 80 55 150 127 66 124 137 115 160 122 92 355 204 162 162 198 245 261 221 176 206 222 208 229 337 211 211 182 157 144 141 143 144 135 120 109
118 120 66 61 8 131 132 107 112 65 101 68 93 83 122 98 42 164 144 184 122 43 78 139 199 232 243 283 61 218 217 211 232 234 214 217 209 184 180 174 168 152 142 135 127
24 95 4 143 158 112 63 103 125 83 52 32 75 205 134 120 97 81 154 133 164 171 356 26 317 201 176 89 360 263 326 228 214 226 243 232 219 190 185 182 177 157 149 148 142
121 136 85 77 132 102 23 66 119 129 30 45 113 118 106 134 215 178 146 244 141 154 159 146 188 201 259 154 39 278 263 274 273 68 234 175 177 319 141 129 162 178 178 182 173
101 74 105 38 90 110 161 166 135 139 46 44 134 97 75 50 70 67 81 70 95 153 143 161 167 205 172 347 323 269 220 228 232 187 164 201 214 169 189 201 186 192 199 196 179